| time (UTC) | temp C | wind direction | speed KPH | gust KPH | rain 1hr cm | rain 24hr cm | rain mn cm | humidity % | barometer mb |
| 20260506201517 | 16 | 328 | 0.0 | 1.6 | 0.00 | 0.61 | 0.61 | 93 | 1007.7 |
| 20260506200021 | 16 | 328 | 1.6 | 3.2 | 0.00 | 0.61 | 0.61 | 92 | 1007.6 |
| 20260506194518 | 15 | 49 | 0.0 | 3.2 | 0.00 | 0.61 | 0.61 | 92 | 1007.8 |
| 20260506193013 | 15 | 244 | 0.0 | 4.8 | 0.00 | 0.61 | 0.61 | 92 | 1007.9 |
| 20260506191526 | 15 | 319 | 0.0 | 4.8 | 0.03 | 0.61 | 0.61 | 92 | 1008.1 |
| 20260506190025 | 15 | 310 | 0.0 | 3.2 | 0.08 | 0.61 | 0.61 | 93 | 1008.1 |
| 20260506184522 | 15 | 254 | 0.0 | 6.4 | 0.08 | 0.61 | 0.61 | 92 | 1008.3 |
| 20260506183018 | 15 | 270 | 0.0 | 6.4 | 0.10 | 0.61 | 0.61 | 92 | 1008.5 |
| 20260506181522 | 15 | 155 | 0.0 | 6.4 | 0.10 | 0.58 | 0.58 | 92 | 1008.5 |
| 20260506180017 | 15 | 183 | 1.6 | 6.4 | 0.10 | 0.53 | 0.53 | 92 | 1008.5 |
| 20260506174526 | 15 | 118 | 0.0 | 4.8 | 0.10 | 0.53 | 0.53 | 92 | 1008.5 |
| 20260506173006 | 15 | 90 | 0.0 | 4.8 | 0.08 | 0.51 | 0.51 | 92 | 1008.5 |
| 20260506171510 | 15 | 37 | 1.6 | 8.0 | 0.05 | 0.48 | 0.48 | 92 | 1008.3 |
| 20260506170004 | 15 | 304 | 1.6 | 4.8 | 0.03 | 0.43 | 0.43 | 91 | 1008.8 |
| 20260506164524 | 15 | 270 | 0.0 | 6.4 | 0.08 | 0.43 | 0.43 | 91 | 1008.8 |
| 20260506163038 | 15 | 107 | 3.2 | 6.4 | 0.13 | 0.43 | 0.43 | 92 | 1008.8 |
| 20260506161520 | 15 | 126 | 1.6 | 8.0 | 0.20 | 0.43 | 0.43 | 92 | 1008.3 |
| 20260506160020 | 15 | 113 | 1.6 | 4.8 | 0.20 | 0.41 | 0.41 | 91 | 1008.8 |
| 20260506154512 | 15 | 113 | 0.0 | 6.4 | 0.18 | 0.36 | 0.36 | 91 | 1009.5 |
| 20260506153010 | 15 | 301 | 0.0 | 11.3 | 0.18 | 0.30 | 0.30 | 90 | 1009.7 |
| 20260506151508 | 15 | 166 | 1.6 | 6.4 | 0.15 | 0.23 | 0.23 | 90 | 1010.0 |
| 20260506150027 | 15 | 155 | 1.6 | 4.8 | 0.15 | 0.20 | 0.20 | 90 | 1010.0 |
| 20260506144525 | 15 | 125 | 0.0 | 3.2 | 0.15 | 0.18 | 0.18 | 90 | 1009.9 |
| 20260506143021 | 15 | 149 | 0.0 | 0.0 | 0.10 | 0.13 | 0.13 | 89 | 1009.7 |
| 20260506141518 | 16 | 136 | 0.0 | 4.8 | 0.05 | 0.08 | 0.08 | 87 | 1009.9 |
| 20260506140026 | 16 | 110 | 0.0 | 3.2 | 0.03 | 0.05 | 0.05 | 86 | 1009.9 |
| 20260506134528 | 16 | 123 | 0.0 | 3.2 | 0.03 | 0.03 | 0.03 | 86 | 1009.6 |
| 20260506133025 | 16 | 118 | 0.0 | 4.8 | 0.03 | 0.03 | 0.03 | 85 | 1010.0 |
| 20260506131524 | 16 | 40 | 0.0 | 4.8 | 0.03 | 0.03 | 0.03 | 84 | 1009.9 |
| 20260506130023 | 16 | 165 | 0.0 | 3.2 | 0.03 | 0.03 | 0.03 | 83 | 1010.0 |
| 20260506124524 | 17 | 178 | 0.0 | 6.4 | 0.00 | 0.00 | 0.00 | 81 | 1010.0 |
| 20260506123024 | 17 | 120 | 1.6 | 11.3 | 0.00 | 0.00 | 0.00 | 77 | 1010.0 |
| 20260506121533 | 17 | 271 | 0.0 | 4.8 | 0.00 | 0.00 | 0.00 | 76 | 1009.7 |
| 20260506120027 | 17 | 106 | 0.0 | 8.0 | 0.00 | 0.00 | 0.00 | 77 | 1009.7 |
| 20260506114533 | 17 | 107 | 0.0 | 4.8 | 0.00 | 0.00 | 0.00 | 76 | 1009.7 |
| 20260506113007 | 17 | 119 | 1.6 | 6.4 | 0.00 | 0.00 | 0.00 | 75 | 1009.5 |
| 20260506111506 | 17 | 82 | 1.6 | 9.7 | 0.00 | 0.00 | 0.00 | 75 | 1009.6 |
| 20260506110008 | 17 | 274 | 1.6 | 9.7 | 0.00 | 0.00 | 0.00 | 75 | 1009.6 |
| 20260506104507 | 17 | 9 | 0.0 | 14.5 | 0.00 | 0.00 | 0.00 | 75 | 1009.3 |
| 20260506103003 | 17 | 57 | 0.0 | 4.8 | 0.00 | 0.00 | 0.00 | 75 | 1009.2 |
| 20260506101508 | 17 | 110 | 1.6 | 9.7 | 0.00 | 0.00 | 0.00 | 75 | 1009.1 |
| 20260506100008 | 17 | 40 | 0.0 | 11.3 | 0.00 | 0.00 | 0.00 | 74 | 1009.1 |
| 20260506094506 | 17 | 21 | 0.0 | 4.8 | 0.00 | 0.00 | 0.00 | 74 | 1009.1 |
| 20260506093016 | 17 | 136 | 1.6 | 6.4 | 0.00 | 0.00 | 0.00 | 74 | 1009.0 |
| 20260506091511 | 17 | 69 | 0.0 | 3.2 | 0.00 | 0.00 | 0.00 | 73 | 1009.2 |
| 20260506090010 | 17 | 136 | 0.0 | 3.2 | 0.00 | 0.00 | 0.00 | 72 | 1009.1 |
| 20260506084508 | 17 | 162 | 0.0 | 4.8 | 0.00 | 0.03 | 0.00 | 72 | 1009.3 |
| 20260506083012 | 17 | 118 | 0.0 | 3.2 | 0.00 | 0.03 | 0.00 | 71 | 1009.2 |
| 20260506081508 | 17 | 167 | 0.0 | 3.2 | 0.00 | 0.03 | 0.00 | 70 | 1009.4 |
| 20260506073016 | 18 | 166 | 0.0 | 4.8 | 0.00 | 0.03 | 0.00 | 68 | 1009.5 |
| 20260506071513 | 18 | 92 | 0.0 | 4.8 | 0.00 | 0.03 | 0.00 | 68 | 1009.6 |
| 20260506061533 | 18 | 169 | 0.0 | 1.6 | 0.00 | 0.03 | 0.00 | 66 | 1010.1 |
| 20260506044508 | 18 | 271 | 0.0 | 3.2 | 0.00 | 0.03 | 0.00 | 62 | 1010.8 |
| 20260506043008 | 18 | 271 | 0.0 | 3.2 | 0.00 | 0.03 | 0.00 | 61 | 1010.9 |
| 20260506041504 | 19 | 271 | 0.0 | 3.2 | 0.00 | 0.03 | 0.00 | 60 | 1011.0 |
| 20260506040014 | 19 | 258 | 0.0 | 4.8 | 0.00 | 0.03 | 0.00 | 60 | 1010.8 |
| 20260506034518 | 19 | 171 | 0.0 | 6.4 | 0.00 | 0.03 | 0.03 | 59 | 1010.7 |
| 20260506033014 | 20 | 99 | 0.0 | 3.2 | 0.00 | 0.03 | 0.03 | 58 | 1010.6 |
| 20260506031526 | 20 | 142 | 0.0 | 3.2 | 0.00 | 0.03 | 0.03 | 57 | 1010.5 |
| 20260506030008 | 20 | 100 | 0.0 | 3.2 | 0.00 | 0.03 | 0.03 | 56 | 1010.6 |
| 20260506024513 | 20 | 111 | 0.0 | 3.2 | 0.00 | 0.03 | 0.03 | 55 | 1010.6 |
| 20260506023011 | 21 | 134 | 0.0 | 6.4 | 0.00 | 0.03 | 0.03 | 54 | 1010.8 |
| 20260506021504 | 21 | 100 | 1.6 | 4.8 | 0.00 | 0.03 | 0.03 | 53 | 1010.8 |
| 20260506020018 | 21 | 121 | 0.0 | 3.2 | 0.00 | 0.03 | 0.03 | 51 | 1010.8 |
| 20260506014514 | 21 | 198 | 0.0 | 6.4 | 0.00 | 0.03 | 0.03 | 50 | 1010.6 |
| 20260506013009 | 22 | 118 | 0.0 | 4.8 | 0.00 | 0.03 | 0.03 | 48 | 1010.4 |
| 20260506011508 | 22 | 88 | 0.0 | 3.2 | 0.00 | 0.03 | 0.03 | 47 | 1010.4 |
| 20260506010018 | 22 | 146 | 1.6 | 3.2 | 0.00 | 0.03 | 0.03 | 47 | 1010.2 |
| 20260506004521 | 22 | 274 | 0.0 | 4.8 | 0.00 | 0.03 | 0.03 | 47 | 1010.0 |
| 20260506003014 | 22 | 5 | 0.0 | 4.8 | 0.00 | 0.03 | 0.03 | 46 | 1009.9 |
| 20260506001516 | 22 | 218 | 0.0 | 6.4 | 0.00 | 0.03 | 0.03 | 46 | 1009.6 |
| 20260506000013 | 23 | 159 | 1.6 | 12.9 | 0.00 | 0.03 | 0.03 | 46 | 1009.4 |
| 20260505234512 | 23 | 126 | 0.0 | 6.4 | 0.00 | 0.03 | 0.03 | 46 | 1009.4 |
| 20260505233021 | 23 | 344 | 0.0 | 4.8 | 0.00 | 0.03 | 0.03 | 45 | 1009.3 |
| 20260505231528 | 23 | 345 | 0.0 | 4.8 | 0.00 | 0.03 | 0.03 | 45 | 1009.2 |
| 20260505230026 | 24 | 350 | 0.0 | 4.8 | 0.00 | 0.03 | 0.03 | 44 | 1009.2 |
| 20260505224514 | 24 | 89 | 1.6 | 9.7 | 0.00 | 0.03 | 0.03 | 43 | 1009.1 |
| 20260505223015 | 25 | 67 | 0.0 | 11.3 | 0.00 | 0.03 | 0.03 | 43 | 1009.1 |
| 20260505221514 | 25 | 355 | 1.6 | 16.1 | 0.00 | 0.03 | 0.03 | 41 | 1009.1 |
| 20260505220030 | 25 | 124 | 4.8 | 12.9 | 0.00 | 0.03 | 0.03 | 40 | 1009.0 |
| 20260505214530 | 25 | 242 | 3.2 | 12.9 | 0.00 | 0.03 | 0.03 | 39 | 1009.0 |
| 20260505213023 | 26 | 184 | 3.2 | 9.7 | 0.00 | 0.03 | 0.03 | 41 | 1009.0 |
| 20260505211520 | 26 | 118 | 3.2 | 11.3 | 0.00 | 0.03 | 0.03 | 40 | 1008.9 |
| 20260505210025 | 26 | 31 | 1.6 | 12.9 | 0.00 | 0.03 | 0.03 | 42 | 1008.8 |
| 20260505204518 | 26 | 279 | 3.2 | 9.7 | 0.00 | 0.03 | 0.03 | 40 | 1008.8 |
| 20260505203030 | 26 | 318 | 3.2 | 14.5 | 0.00 | 0.03 | 0.03 | 39 | 1009.0 |